K6OUA-11 Weather Reports


Display with metric or nautical units.
time (UTC)temp
F
wind
direction
speed
MPH
gust
MPH
rain 1hr
in
rain 24hr
in
rain mn
in
humidity
%
barometer
mb
20211016145419 74 112 0.0 0.0 0.00 0.00 0.00 9 1010.4
20211016145118 74 90 0.0 0.0 0.00 0.00 0.00 9 1010.4
20211016144215 72 90 0.0 0.0 0.00 0.00 0.00 9 1010.5
20211016143613 71 90 0.0 0.0 0.00 0.00 0.00 9 1010.5
20211016143311 71 90 0.0 0.0 0.00 0.00 0.00 9 1010.3
20211016143011 71 90 0.0 0.0 0.00 0.00 0.00 10 1010.4
20211016142710 70 67 0.0 0.0 0.00 0.00 0.00 9 1010.3
20211016142108 70 45 0.0 0.0 0.00 0.00 0.00 10 1010.2
20211016141806 70 45 0.0 0.0 0.00 0.00 0.00 10 1010.3
20211016140903 70 67 0.0 0.0 0.00 0.00 0.00 10 1010.3
20211016140602 70 45 0.0 0.0 0.00 0.00 0.00 9 1010.2
20211016140302 70 45 3.0 11.0 0.00 0.00 0.00 9 1010.3
20211016140000 70 45 6.0 8.0 0.00 0.00 0.00 9 1010.4
20211016135659 70 45 0.0 9.0 0.00 0.00 0.00 9 1010.2
20211016135358 70 45 2.0 9.0 0.00 0.00 0.00 9 1010.2
20211016135057 70 45 4.0 9.0 0.00 0.00 0.00 9 1010.3
20211016134755 70 45 1.0 6.0 0.00 0.00 0.00 9 1010.2
20211016134454 70 45 0.0 1.0 0.00 0.00 0.00 9 1010.2
20211016133551 70 45 9.0 9.0 0.00 0.00 0.00 9 1010.1
20211016133249 70 45 6.0 9.0 0.00 0.00 0.00 9 1010.0
20211016132949 70 45 9.0 13.0 0.00 0.00 0.00 9 1010.1
20211016132045 70 45 7.0 13.0 0.00 0.00 0.00 9 1010.1
20211016131744 70 45 7.0 12.0 0.00 0.00 0.00 9 1010.0
20211016131443 70 45 9.0 11.0 0.00 0.00 0.00 9 1009.9
20211016130841 70 45 4.0 6.0 0.00 0.00 0.00 9 1010.0
20211016130540 70 45 0.0 1.0 0.00 0.00 0.00 9 1010.1
20211016130239 70 45 0.0 1.0 0.00 0.00 0.00 9 1010.1
20211016125637 70 45 0.0 1.0 0.00 0.00 0.00 9 1010.1
20211016125336 70 45 0.0 1.0 0.00 0.00 0.00 9 1010.0
20211016125034 71 45 1.0 1.0 0.00 0.00 0.00 9 1010.0
20211016124733 71 45 0.0 6.0 0.00 0.00 0.00 9 1010.0
20211016124432 71 45 4.0 9.0 0.00 0.00 0.00 9 1010.2
20211016124130 71 45 0.0 12.0 0.00 0.00 0.00 9 1010.1
20211016123830 71 0 7.0 12.0 0.00 0.00 0.00 9 1010.2
20211016123529 71 0 0.0 0.0 0.00 0.00 0.00 9 1010.1
20211016123228 71 0 6.0 13.0 0.00 0.00 0.00 9 1010.1
20211016122927 71 0 4.0 8.0 0.00 0.00 0.00 9 1010.3
20211016122626 71 0 0.0 9.0 0.00 0.00 0.00 9 1010.2
20211016122324 71 0 4.0 13.0 0.00 0.00 0.00 9 1010.0
20211016121722 71 0 0.0 11.0 0.00 0.00 0.00 9 1010.1
20211016121420 71 337 2.0 13.0 0.00 0.00 0.00 8 1010.1
20211016121120 71 315 6.0 12.0 0.00 0.00 0.00 9 1010.1
20211016120819 71 315 11.0 12.0 0.00 0.00 0.00 9 1010.1
20211016120518 71 315 10.0 14.0 0.00 0.00 0.00 9 1010.0
20211016120217 71 0 11.0 14.0 0.00 0.00 0.00 9 1010.1
20211016115916 71 0 1.0 12.0 0.00 0.00 0.00 9 1009.9
20211016115614 71 0 0.0 14.0 0.00 0.00 0.00 9 1010.0
20211016115313 70 0 10.0 14.0 0.00 0.00 0.00 9 1010.0
20211016115012 70 45 6.0 14.0 0.00 0.00 0.00 9 1010.1
20211016114712 70 90 7.0 14.0 0.00 0.00 0.00 9 1010.1
20211016114410 70 90 8.0 16.0 0.00 0.00 0.00 9 1010.0
20211016113808 70 90 6.0 10.0 0.00 0.00 0.00 10 1010.1
20211016113206 70 135 4.0 13.0 0.00 0.00 0.00 10 1010.2
20211016112905 70 135 0.0 0.0 0.00 0.00 0.00 10 1010.2
20211016112603 70 135 0.0 0.0 0.00 0.00 0.00 10 1010.2
20211016112305 70 135 0.0 0.0 0.00 0.00 0.00 10 1010.1
20211016112001 70 135 0.0 0.0 0.00 0.00 0.00 10 1010.2
20211016111701 70 90 0.0 6.0 0.00 0.00 0.00 10 1010.2
20211016111359 70 90 6.0 8.0 0.00 0.00 0.00 10 1010.2
20211016111058 70 85 1.0 1.0 0.00 0.00 0.00 10 1010.2
20211016110757 70 67 0.0 1.0 0.00 0.00 0.00 10 1010.2
20211016110155 70 90 3.0 8.0 0.00 0.00 0.00 10 1010.2
20211016105854 70 45 0.0 11.0 0.00 0.00 0.00 10 1010.2
20211016105251 70 90 10.0 11.0 0.00 0.00 0.00 10 1010.0
20211016104950 70 90 9.0 10.0 0.00 0.00 0.00 10 1010.4
20211016104649 70 112 0.0 9.0 0.00 0.00 0.00 10 1010.4
20211016104348 70 135 2.0 9.0 0.00 0.00 0.00 10 1010.5
20211016104047 70 135 6.0 6.0 0.00 0.00 0.00 10 1010.4
20211016103746 70 135 0.0 1.0 0.00 0.00 0.00 10 1010.5
20211016103445 70 135 0.0 1.0 0.00 0.00 0.00 10 1010.6
20211016103143 70 135 0.0 0.0 0.00 0.00 0.00 10 1010.5
20211016102842 70 135 0.0 0.0 0.00 0.00 0.00 10 1010.5
20211016102541 70 135 0.0 0.0 0.00 0.00 0.00 10 1010.4
20211016102240 70 135 0.0 0.0 0.00 0.00 0.00 10 1010.5
20211016101939 70 135 0.0 4.0 0.00 0.00 0.00 10 1010.4
20211016101638 71 135 0.0 4.0 0.00 0.00 0.00 9 1010.6
20211016101036 71 135 0.0 0.0 0.00 0.00 0.00 9 1010.5
20211016100734 71 135 0.0 5.0 0.00 0.00 0.00 10 1010.7
20211016100434 71 90 3.0 9.0 0.00 0.00 0.00 10 1010.7
20211016100132 71 90 5.0 9.0 0.00 0.00 0.00 10 1010.7
20211016095530 72 112 7.0 10.0 0.00 0.00 0.00 9 1010.7
20211016095229 72 135 5.0 9.0 0.00 0.00 0.00 9 1010.8
20211016094627 72 135 0.0 0.0 0.00 0.00 0.00 9 1010.6
20211016094326 72 135 0.0 0.0 0.00 0.00 0.00 9 1010.7
20211016094026 72 112 0.0 0.0 0.00 0.00 0.00 9 1010.7
20211016093724 72 135 0.0 0.0 0.00 0.00 0.00 9 1010.5
20211016093422 72 135 0.0 11.0 0.00 0.00 0.00 9 1010.8
20211016093121 72 135 6.0 16.0 0.00 0.00 0.00 9 1010.6
20211016092820 72 112 11.0 17.0 0.00 0.00 0.00 9 1010.6
20211016092519 72 90 10.0 17.0 0.00 0.00 0.00 9 1010.5
20211016092218 72 90 10.0 13.0 0.00 0.00 0.00 9 1010.6
20211016091917 72 90 6.0 13.0 0.00 0.00 0.00 9 1010.7
20211016091616 72 90 6.0 14.0 0.00 0.00 0.00 9 1010.6
20211016091315 72 90 8.0 14.0 0.00 0.00 0.00 9 1010.7
20211016091014 72 90 7.0 13.0 0.00 0.00 0.00 9 1010.6
20211016090713 72 90 2.0 11.0 0.00 0.00 0.00 9 1010.8
20211016090412 72 90 8.0 14.0 0.00 0.00 0.00 9 1010.7
20211016090110 72 90 9.0 16.0 0.00 0.00 0.00 9 1010.8
20211016085809 72 90 6.0 16.0 0.00 0.00 0.00 9 1010.7
20211016085508 72 135 0.0 10.0 0.00 0.00 0.00 9 1010.8
20211016084906 71 135 3.0 3.0 0.00 0.00 0.00 9 1010.6
20211016084605 71 135 0.0 11.0 0.00 0.00 0.00 9 1010.6
20211016084304 71 135 0.0 11.0 0.00 0.00 0.00 9 1010.7
20211016084003 71 112 10.0 14.0 0.00 0.00 0.00 9 1010.7
20211016083702 71 112 12.0 14.0 0.00 0.00 0.00 9 1010.6
20211016083401 71 135 5.0 15.0 0.00 0.00 0.00 9 1010.5
20211016083059 71 135 7.0 13.0 0.00 0.00 0.00 9 1010.4
20211016082457 70 135 0.0 8.0 0.00 0.00 0.00 9 1010.3
20211016082156 70 135 8.0 8.0 0.00 0.00 0.00 9 1010.4
20211016081855 70 135 0.0 13.0 0.00 0.00 0.00 10 1010.4
20211016081554 70 135 6.0 6.0 0.00 0.00 0.00 9 1010.6
20211016081253 70 135 0.0 0.0 0.00 0.00 0.00 9 1010.6
20211016080650 70 135 0.0 0.0 0.00 0.00 0.00 10 1010.5
20211016080350 70 135 0.0 0.0 0.00 0.00 0.00 10 1010.7
20211016075747 70 135 0.0 0.0 0.00 0.00 0.00 10 1010.5
20211016075446 70 135 0.0 1.0 0.00 0.00 0.00 9 1010.8
20211016075145 70 135 0.0 4.0 0.00 0.00 0.00 9 1010.7
20211016074844 70 135 4.0 4.0 0.00 0.00 0.00 9 1010.7
20211016074543 70 135 0.0 2.0 0.00 0.00 0.00 9 1010.6
20211016073941 70 135 2.0 5.0 0.00 0.00 0.00 10 1010.6
20211016073639 70 135 0.0 0.0 0.00 0.00 0.00 9 1010.6
20211016073338 70 135 0.0 4.0 0.00 0.00 0.00 9 1010.7
20211016073037 70 135 0.0 0.0 0.00 0.00 0.00 9 1010.7
20211016072736 70 135 0.0 0.0 0.00 0.00 0.00 9 1010.6
20211016072435 70 135 0.0 0.0 0.00 0.00 0.00 9 1010.7
20211016072134 71 135 0.0 0.0 0.00 0.00 0.00 9 1010.8
20211016071833 71 135 0.0 0.0 0.00 0.00 0.00 9 1010.7
20211016071532 71 135 0.0 0.0 0.00 0.00 0.00 9 1010.8
20211016071230 71 135 0.0 7.0 0.00 0.00 0.00 9 1010.9
20211016070930 71 135 4.0 13.0 0.00 0.00 0.00 9 1010.8
20211016070629 71 135 0.0 2.0 0.00 0.00 0.00 9 1010.9
20211016070327 72 135 0.0 10.0 0.00 0.00 0.00 9 1011.0
20211016070026 72 315 0.0 3.0 0.00 0.00 0.00 9 1011.0
20211016065725 72 45 4.0 7.0 0.00 0.00 0.00 9 1010.8
20211016065424 72 45 0.0 0.0 0.00 0.00 0.00 9 1011.0
20211016065123 72 45 0.0 1.0 0.00 0.00 0.00 9 1010.9
20211016064821 72 45 1.0 1.0 0.00 0.00 0.00 9 1011.0
20211016064521 72 45 0.0 9.0 0.00 0.00 0.00 9 1011.0
20211016064219 72 45 7.0 11.0 0.00 0.00 0.00 9 1010.9
20211016063919 72 22 3.0 6.0 0.00 0.00 0.00 9 1010.9
20211016063617 72 11 0.0 0.0 0.00 0.00 0.00 9 1010.9
20211016063316 72 0 0.0 0.0 0.00 0.00 0.00 9 1010.9
20211016063015 73 0 0.0 16.0 0.00 0.00 0.00 9 1011.0
20211016062714 72 0 5.0 13.0 0.00 0.00 0.00 9 1010.9
20211016062413 72 0 8.0 13.0 0.00 0.00 0.00 9 1010.9
20211016062112 72 0 0.0 0.0 0.00 0.00 0.00 9 1010.9
20211016061811 72 0 0.0 12.0 0.00 0.00 0.00 9 1010.9
20211016061509 72 45 0.0 12.0 0.00 0.00 0.00 9 1011.0
20211016060908 72 22 6.0 9.0 0.00 0.00 0.00 9 1011.0
20211016060607 72 22 0.0 0.0 0.00 0.00 0.00 9 1011.2
20211016060305 72 0 0.0 3.0 0.00 0.00 0.00 9 1011.1
20211016060004 72 22 0.0 11.0 0.00 0.00 0.00 9 1011.1
20211016055402 72 45 0.0 1.0 0.00 0.00 0.00 9 1011.4
20211016055101 72 45 0.0 8.0 0.00 0.00 0.00 9 1011.3
20211016054800 72 0 1.0 1.0 0.00 0.00 0.00 9 1011.3
20211016054459 73 0 0.0 9.0 0.00 0.00 0.00 9 1011.3
20211016054158 73 0 0.0 8.0 0.00 0.00 0.00 9 1011.3
20211016053555 73 0 2.0 9.0 0.00 0.00 0.00 9 1011.1
20211016053255 73 22 4.0 7.0 0.00 0.00 0.00 9 1011.1
20211016052952 73 45 0.0 0.0 0.00 0.00 0.00 9 1011.0
20211016052652 73 45 0.0 2.0 0.00 0.00 0.00 9 1011.1
20211016052050 73 45 0.0 7.0 0.00 0.00 0.00 9 1011.2
20211016051749 73 45 5.0 7.0 0.00 0.00 0.00 9 1011.1
20211016051448 73 45 9.0 13.0 0.00 0.00 0.00 9 1011.1
20211016051146 73 40 4.0 13.0 0.00 0.00 0.00 9 1011.0
20211016050845 73 0 5.0 8.0 0.00 0.00 0.00 9 1010.9
20211016050544 73 45 0.0 7.0 0.00 0.00 0.00 9 1011.0
20211016050243 73 45 0.0 9.0 0.00 0.00 0.00 9 1011.0
20211016045942 73 67 0.0 9.0 0.00 0.00 0.00 9 1010.9
20211016045641 73 45 1.0 10.0 0.00 0.00 0.00 9 1010.8
20211016045340 73 45 8.0 10.0 0.00 0.00 0.00 9 1010.8
20211016045039 73 67 0.0 0.0 0.00 0.00 0.00 9 1011.0
20211016044737 73 128 0.0 3.0 0.00 0.00 0.00 9 1010.9
20211016044437 73 130 0.0 12.0 0.00 0.00 0.00 9 1010.8
20211016044135 73 135 7.0 12.0 0.00 0.00 0.00 9 1010.9
20211016043835 73 135 0.0 1.0 0.00 0.00 0.00 9 1010.9
20211016043533 74 135 0.0 4.0 0.00 0.00 0.00 9 1011.0
20211016043232 74 135 0.0 4.0 0.00 0.00 0.00 10 1010.8
20211016042931 74 135 7.0 8.0 0.00 0.00 0.00 9 1010.9
20211016042630 74 157 3.0 7.0 0.00 0.00 0.00 9 1010.9
20211016042028 74 135 0.0 12.0 0.00 0.00 0.00 10 1010.7
20211016041727 74 135 4.0 12.0 0.00 0.00 0.00 9 1010.9
20211016041426 74 135 0.0 1.0 0.00 0.00 0.00 9 1010.8
20211016041125 74 135 0.0 7.0 0.00 0.00 0.00 9 1010.7
20211016040823 74 202 4.0 4.0 0.00 0.00 0.00 9 1010.9
20211016040522 74 180 0.0 1.0 0.00 0.00 0.00 9 1010.8
20211016040221 75 135 0.0 10.0 0.00 0.00 0.00 9 1010.9
20211016035920 75 135 3.0 10.0 0.00 0.00 0.00 9 1010.8
20211016035318 75 135 4.0 11.0 0.00 0.00 0.00 9 1010.8
20211016034716 75 135 6.0 16.0 0.00 0.00 0.00 9 1010.9
20211016034415 75 135 10.0 16.0 0.00 0.00 0.00 9 1010.7
20211016034113 75 135 8.0 15.0 0.00 0.00 0.00 9 1010.7
20211016033812 75 135 0.0 11.0 0.00 0.00 0.00 9 1010.7
20211016033511 75 135 6.0 12.0 0.00 0.00 0.00 9 1010.7
20211016033210 75 135 12.0 12.0 0.00 0.00 0.00 9 1010.7
20211016032909 75 135 9.0 9.0 0.00 0.00 0.00 9 1010.7
20211016032608 75 135 0.0 0.0 0.00 0.00 0.00 9 1010.8
20211016032307 75 135 0.0 0.0 0.00 0.00 0.00 9 1010.8
20211016032005 75 90 0.0 13.0 0.00 0.00 0.00 9 1010.8
20211016031705 75 67 0.0 0.0 0.00 0.00 0.00 9 1010.8
20211016031403 75 90 0.0 0.0 0.00 0.00 0.00 9 1010.8
20211016031102 75 45 0.0 0.0 0.00 0.00 0.00 9 1010.9
20211016030806 75 45 0.0 0.0 0.00 0.00 0.00 9 1011.0
20211016030500 75 45 0.0 0.0 0.00 0.00 0.00 9 1010.9
20211016025557 75 0 0.0 5.0 0.00 0.00 0.00 9 1010.7
20211016025256 76 0 0.0 5.0 0.00 0.00 0.00 9 1010.8
20211016024956 76 0 4.0 8.0 0.00 0.00 0.00 9 1010.7
20211016024654 76 0 6.0 7.0 0.00 0.00 0.00 9 1010.7
20211016024352 76 0 3.0 12.0 0.00 0.00 0.00 9 1010.6
20211016024052 76 0 4.0 12.0 0.00 0.00 0.00 9 1010.7
20211016023750 76 0 11.0 12.0 0.00 0.00 0.00 9 1010.7
20211016023449 76 0 7.0 8.0 0.00 0.00 0.00 9 1010.6
20211016023148 76 0 7.0 12.0 0.00 0.00 0.00 9 1010.6
20211016022847 76 0 0.0 12.0 0.00 0.00 0.00 9 1010.6
20211016022245 76 0 11.0 12.0 0.00 0.00 0.00 9 1010.5
20211016021644 76 0 0.0 0.0 0.00 0.00 0.00 9 1010.4
20211016021341 76 0 0.0 0.0 0.00 0.00 0.00 9 1010.5
20211016021040 76 0 0.0 0.0 0.00 0.00 0.00 9 1010.5
20211016020740 76 0 0.0 0.0 0.00 0.00 0.00 9 1010.4
20211016020137 76 337 2.0 8.0 0.00 0.00 0.00 9 1010.5
20211016015836 76 337 6.0 8.0 0.00 0.00 0.00 9 1010.5
20211016015535 76 337 0.0 0.0 0.00 0.00 0.00 9 1010.6
20211016015233 76 315 0.0 0.0 0.00 0.00 0.00 9 1010.6
20211016014933 76 315 0.0 6.0 0.00 0.00 0.00 9 1010.6
20211016014330 77 315 0.0 0.0 0.00 0.00 0.00 9 1010.7
20211016014031 77 315 0.0 0.0 0.00 0.00 0.00 9 1010.5
20211016013427 78 0 5.0 9.0 0.00 0.00 0.00 9 1010.5
20211016012826 78 0 13.0 13.0 0.00 0.00 0.00 8 1010.5
20211016012524 78 0 6.0 11.0 0.00 0.00 0.00 8 1010.5
20211016012225 78 0 0.0 9.0 0.00 0.00 0.00 8 1010.4
20211016011921 78 0 7.0 15.0 0.00 0.00 0.00 8 1010.4
20211016011620 79 0 7.0 15.0 0.00 0.00 0.00 8 1010.3
20211016011321 79 0 12.0 15.0 0.00 0.00 0.00 8 1010.2
20211016010719 79 315 0.0 8.0 0.00 0.00 0.00 8 1010.3
20211016010416 79 90 0.0 12.0 0.00 0.00 0.00 8 1010.3
20211016010118 79 29 4.0 12.0 0.00 0.00 0.00 8 1010.3
20211016005814 79 90 4.0 16.0 0.00 0.00 0.00 8 1010.2
20211016005513 80 45 3.0 18.0 0.00 0.00 0.00 8 1010.3
20211016005212 80 0 16.0 18.0 0.00 0.00 0.00 8 1010.2
20211016004911 80 0 4.0 16.0 0.00 0.00 0.00 8 1010.3
20211016004609 80 0 11.0 15.0 0.00 0.00 0.00 8 1010.3
20211016004308 80 0 1.0 13.0 0.00 0.00 0.00 8 1010.3
20211016004007 80 90 8.0 16.0 0.00 0.00 0.00 8 1010.4
20211016003710 80 45 13.0 17.0 0.00 0.00 0.00 8 1010.4
20211016002502 81 0 6.0 15.0 0.00 0.00 0.00 8 1010.3
20211016001854 81 0 9.0 20.0 0.00 0.00 0.00 8 1010.4
20211016001556 81 11 12.0 15.0 0.00 0.00 0.00 8 1010.5
20211016001252 81 0 10.0 15.0 0.00 0.00 0.00 7 1010.6
20211016000650 81 0 17.0 17.0 0.00 0.00 0.00 8 1010.6
20211016000349 81 45 10.0 17.0 0.00 0.00 0.00 8 1010.7
20211015235446 82 90 7.0 17.0 0.00 0.00 0.00 8 1010.7
20211015235145 83 67 16.0 19.0 0.00 0.00 0.00 8 1010.6
20211015234843 83 45 13.0 19.0 0.00 0.00 0.00 8 1010.7
20211015234542 83 67 16.0 17.0 0.00 0.00 0.00 8 1010.5
20211015233337 83 0 8.0 19.0 0.00 0.00 0.00 8 1010.8
20211015232736 83 90 14.0 19.0 0.00 0.00 0.00 8 1010.8
20211015232435 84 90 5.0 16.0 0.00 0.00 0.00 8 1010.9
20211015232133 83 90 10.0 21.0 0.00 0.00 0.00 8 1010.7
20211015231834 84 90 7.0 21.0 0.00 0.00 0.00 8 1011.0
20211015230929 83 90 15.0 21.0 0.00 0.00 0.00 8 1010.8
20211015230630 84 135 12.0 19.0 0.00 0.00 0.00 8 1010.7
20211015230326 84 90 15.0 20.0 0.00 0.00 0.00 9 1010.7
20211015225726 84 121 20.0 20.0 0.00 0.00 0.00 8 1010.7
20211015225430 84 45 12.0 22.0 0.00 0.00 0.00 8 1010.6
20211015225122 84 0 12.0 29.0 0.00 0.00 0.00 8 1010.6
20211015224823 84 0 21.0 24.0 0.00 0.00 0.00 8 1010.4
20211015224522 84 90 16.0 26.0 0.00 0.00 0.00 8 1010.5
20211015224219 85 81 25.0 26.0 0.00 0.00 0.00 8 1010.6
20211015223918 85 27 10.0 14.0 0.00 0.00 0.00 9 1010.8
20211015223617 85 90 13.0 14.0 0.00 0.00 0.00 9 1010.9
20211015223316 85 87 15.0 28.0 0.00 0.00 0.00 8 1010.8
20211015223017 85 45 6.0 20.0 0.00 0.00 0.00 9 1010.7
20211015222714 85 90 17.0 20.0 0.00 0.00 0.00 8 1010.6
20211015222112 85 90 5.0 17.0 0.00 0.00 0.00 9 1010.8
20211015221810 85 90 16.0 16.0 0.00 0.00 0.00 9 1010.8
20211015221208 85 90 10.0 17.0 0.00 0.00 0.00 9 1011.0
20211015220311 85 0 8.0 14.0 0.00 0.00 0.00 9 1011.0
20211015215402 85 0 15.0 18.0 0.00 0.00 0.00 9 1011.1
20211015215059 85 45 13.0 16.0 0.00 0.00 0.00 9 1011.2
20211015214800 85 45 16.0 26.0 0.00 0.00 0.00 9 1011.3
20211015214157 85 0 17.0 18.0 0.00 0.00 0.00 9 1011.4
20211015213856 85 87 13.0 24.0 0.00 0.00 0.00 9 1011.1
20211015213553 85 45 9.0 22.0 0.00 0.00 0.00 9 1011.3
20211015213255 85 45 16.0 20.0 0.00 0.00 0.00 9 1011.4
20211015212952 85 90 12.0 19.0 0.00 0.00 0.00 9 1011.2
20211015212049 85 90 22.0 22.0 0.00 0.00 0.00 9 1011.3
20211015211748 85 135 5.0 16.0 0.00 0.00 0.00 9 1011.2
20211015211447 85 135 10.0 19.0 0.00 0.00 0.00 10 1011.3
20211015211146 84 135 11.0 24.0 0.00 0.00 0.00 10 1011.4
20211015210843 84 67 13.0 24.0 0.00 0.00 0.00 10 1011.5
20211015210544 84 45 18.0 22.0 0.00 0.00 0.00 9 1011.5
20211015210244 85 54 12.0 21.0 0.00 0.00 0.00 9 1011.6
20211015205340 85 45 12.0 19.0 0.00 0.00 0.00 9 1011.6
20211015205038 84 0 11.0 22.0 0.00 0.00 0.00 9 1011.6
20211015204737 85 0 13.0 20.0 0.00 0.00 0.00 9 1011.6
20211015204436 85 90 12.0 18.0 0.00 0.00 0.00 9 1011.6
20211015204133 85 45 9.0 18.0 0.00 0.00 0.00 9 1011.8
20211015203533 85 45 14.0 22.0 0.00 0.00 0.00 10 1011.7
20211015203233 85 0 9.0 21.0 0.00 0.00 0.00 10 1011.9
20211015202929 85 0 17.0 25.0 0.00 0.00 0.00 10 1011.9
20211015202628 85 40 20.0 20.0 0.00 0.00 0.00 10 1012.0
20211015202327 85 0 3.0 21.0 0.00 0.00 0.00 11 1011.9
20211015202027 84 90 16.0 21.0 0.00 0.00 0.00 10 1012.0
20211015201425 84 45 11.0 20.0 0.00 0.00 0.00 10 1012.0
20211015201124 84 45 17.0 23.0 0.00 0.00 0.00 10 1012.2
20211015200823 84 6 19.0 22.0 0.00 0.00 0.00 10 1011.8
20211015200522 84 90 10.0 13.0 0.00 0.00 0.00 10 1012.1
20211015200221 84 94 6.0 16.0 0.00 0.00 0.00 10 1012.4
20211015195921 84 67 13.0 16.0 0.00 0.00 0.00 10 1012.4
20211015195316 84 45 17.0 18.0 0.00 0.00 0.00 10 1012.6
20211015195015 84 9 12.0 21.0 0.00 0.00 0.00 10 1012.4
20211015194413 83 2 17.0 17.0 0.00 0.00 0.00 11 1012.6
20211015193511 83 90 17.0 21.0 0.00 0.00 0.00 11 1012.7
20211015193208 83 90 14.0 18.0 0.00 0.00 0.00 11 1012.7
20211015192907 82 90 13.0 18.0 0.00 0.00 0.00 11 1012.5
20211015192306 82 56 16.0 20.0 0.00 0.00 0.00 11 1012.8
20211015192005 82 45 20.0 20.0 0.00 0.00 0.00 12 1012.7
20211015191403 82 15 19.0 23.0 0.00 0.00 0.00 11 1012.8
20211015191100 82 0 23.0 23.0 0.00 0.00 0.00 11 1012.7
20211015190504 82 90 19.0 19.0 0.00 0.00 0.00 11 1013.0
20211015190158 82 90 10.0 14.0 0.00 0.00 0.00 12 1012.9
20211015185858 82 90 8.0 24.0 0.00 0.00 0.00 11 1012.6
20211015185557 82 135 17.0 23.0 0.00 0.00 0.00 11 1012.6
20211015185256 82 83 10.0 23.0 0.00 0.00 0.00 12 1012.7
20211015184953 82 45 13.0 20.0 0.00 0.00 0.00 11 1013.1
20211015184352 81 90 5.0 21.0 0.00 0.00 0.00 12 1013.0
20211015184049 81 90 5.0 23.0 0.00 0.00 0.00 12 1013.0
20211015183749 81 123 17.0 22.0 0.00 0.00 0.00 12 1013.2
20211015183449 81 90 11.0 22.0 0.00 0.00 0.00 12 1013.1
20211015183147 81 90 18.0 22.0 0.00 0.00 0.00 12 1012.9
20211015181943 80 45 12.0 19.0 0.00 0.00 0.00 12 1013.2
20211015181642 80 90 17.0 20.0 0.00 0.00 0.00 12 1013.3
20211015181038 79 38 16.0 20.0 0.00 0.00 0.00 12 1013.3
20211015180738 79 45 11.0 20.0 0.00 0.00 0.00 12 1013.4
20211015175233 78 45 12.0 24.0 0.00 0.00 0.00 13 1013.7
20211015174932 78 45 11.0 27.0 0.00 0.00 0.00 13 1013.4
20211015174029 78 0 15.0 22.0 0.00 0.00 0.00 13 1013.1
20211015173426 78 90 25.0 25.0 0.00 0.00 0.00 13 1013.4
20211015173126 78 90 13.0 21.0 0.00 0.00 0.00 13 1013.3
20211015172823 78 135 11.0 19.0 0.00 0.00 0.00 13 1013.3
20211015171919 77 90 20.0 21.0 0.00 0.00 0.00 13 1013.5
20211015171618 77 45 16.0 27.0 0.00 0.00 0.00 13 1013.4
20211015170717 77 315 15.0 21.0 0.00 0.00 0.00 14 1013.5
20211015170416 77 270 10.0 19.0 0.00 0.00 0.00 14 1013.4
20211015165939 77 56 15.0 21.0 0.00 0.00 0.00 14 1013.3
20211015165814 77 56 15.0 21.0 0.00 0.00 0.00 14 1013.3
20211015164911 77 0 6.0 17.0 0.00 0.00 0.00 14 1013.5
20211015164609 77 0 14.0 19.0 0.00 0.00 0.00 14 1013.5
20211015164308 76 90 11.0 19.0 0.00 0.00 0.00 14 1013.5
20211015164006 76 45 10.0 20.0 0.00 0.00 0.00 15 1013.4
20211015162803 76 45 11.0 17.0 0.00 0.00 0.00 15 1013.3
20211015162503 75 45 15.0 23.0 0.00 0.00 0.00 15 1013.5
20211015162200 75 45 6.0 23.0 0.00 0.00 0.00 15 1013.3
20211015161257 75 0 10.0 20.0 0.00 0.00 0.00 15 1013.4
20211015160653 75 74 11.0 15.0 0.00 0.00 0.00 15 1013.3
20211015160053 74 90 10.0 16.0 0.00 0.00 0.00 16 1013.1
20211015155751 74 45 14.0 18.0 0.00 0.00 0.00 15 1013.0
20211015155451 74 45 17.0 17.0 0.00 0.00 0.00 15 1013.0
20211015155149 74 63 11.0 16.0 0.00 0.00 0.00 16 1013.1
20211015154846 74 0 13.0 16.0 0.00 0.00 0.00 16 1012.9
20211015154547 74 0 14.0 23.0 0.00 0.00 0.00 16 1013.0
20211015154246 74 45 14.0 23.0 0.00 0.00 0.00 16 1012.8
20211015153945 74 315 15.0 16.0 0.00 0.00 0.00 16 1012.8
20211015153342 73 337 0.0 11.0 0.00 0.00 0.00 17 1013.0
20211015153040 73 4 2.0 16.0 0.00 0.00 0.00 16 1012.9
20211015152739 73 0 10.0 16.0 0.00 0.00 0.00 16 1013.0
20211015152438 72 0 13.0 13.0 0.00 0.00 0.00 17 1012.7
20211015152138 72 4 5.0 19.0 0.00 0.00 0.00 16 1012.6
20211015151836 72 90 13.0 19.0 0.00 0.00 0.00 16 1012.7
20211015151534 72 87 10.0 14.0 0.00 0.00 0.00 17 1012.7
20211015150932 72 90 12.0 23.0 0.00 0.00 0.00 16 1012.7
20211015150632 72 67 20.0 23.0 0.00 0.00 0.00 16 1012.6